Tracking 19170 objects as of 23-May-2018
HD Live streaming from Space Station
objects crossing your sky now

FENGYUN 1C DEB

Track FENGYUN 1C DEB now!
10-day predictions


NORAD ID: 30050
Int'l Code: 1999-025PB
Perigee: 840.5 km
Apogee: 1,102.9 km
Inclination: 96.8 °
Period: 104.4 minutes
Semi major axis: 7342 km
RCS: 0.035 m2 (small)
Launch date: May 10, 1999
Source: People's Republic of China (PRC)
Launch site: Taiyaun Space Center, China (TSC)

Note: This is SATELLITE DEBRIS
aabbcc
Your satellite tracking list
Your tracking list is empty




NASA's NSSDC Master Catalog

Two Line Element Set (TLE):
1 30050U 99025PB  18142.88552944  .00000196  00000-0  19128-3 0  9994
2 30050  96.8226 107.5956 0178682 302.4984 109.7425 13.79809349570999
Source of the keplerian elements: AFSPC